Volkel, Netherlands

7:21 AM CET on February 23, 2017 (GMT +0100)
Volkel Air Base

Weather History for EHVK - September, 2013

Change the Weather History Date:

Sunday, September 8, 2013

  Actual Average Record
Temperature  
Mean Temperature 60 °F -  
Max Temperature 66 °F 63 °F 83 °F (2016)
Min Temperature 53 °F 47 °F 41 °F (1996)
Degree Days  
Heating Degree Days 6    
Growing Degree Days 10 (Base 50)    
Moisture  
Dew Point 54 °F    
Average Humidity 89    
Maximum Humidity 100    
Minimum Humidity 56    
Precipitation  
Precipitation 0.00 in - - ()
Sea Level Pressure  
Sea Level Pressure 30.06 in    
Wind  
Wind Speed 2 mph ()    
Max Wind Speed 7 mph    
Max Gust Speed -    
Visibility 4.7 miles    
Events Rain    
Averages and records for this station are not official NWS values.
T = Trace of Precipitation, MM = Missing Value Source: Averaged Metar Reports

Daily Weather History Graph

Daily Weather History Graph

Search for Another Location

Airport or City:

Trip Planner

Search our weather history database for the weather conditions in past years. The results will help you decide how hot, cold, wet, or windy it might be!

Date:

Astronomy

Sep. 08, 2013 Rise Set
Actual Time 7:00 AM CEST 8:07 PM CEST
Civil Twilight 6:26 AM CEST 8:41 PM CEST
Nautical Twilight 5:44 AM CEST 9:23 PM CEST
Astronomical Twilight 4:59 AM CEST 10:07 PM CEST
Moon 10:29 AM CEST (9/8) 9:02 PM CEST (9/8)
Length of Visible Light 14h 15m
Length of Day
13h 06m
Waxing Crescent, 9% of the Moon is Illuminated
Sep 8
Waxing Crescent
Sep 12
First Quarter
Sep 19
Full
Sep 27
Last Quarter
Oct 5
New

Hourly Weather History & Observations

Time (CEST) Temp. Dew Point Humidity Pressure Visibility Wind Dir Wind Speed Gust Speed Precip Events Conditions
12:04 AM 55.4 °F 55.4 °F 100% 30.06 in 1.1 mi NE 3.5 mph - N/A   Mostly Cloudy
12:17 AM 55.4 °F 55.4 °F 100% 30.06 in - NE 2.3 mph - N/A   Overcast
12:25 AM 55.4 °F 55.4 °F 100% 30.06 in 0.8 mi ENE 2.3 mph - N/A   Overcast
12:29 AM 57.2 °F 55.4 °F 94% 30.06 in 1.2 mi ENE 1.2 mph - N/A   Overcast
12:33 AM 57.2 °F 55.4 °F 94% 30.06 in 0.8 mi ENE 1.2 mph - N/A   Overcast
12:37 AM 57.2 °F 55.4 °F 94% 30.06 in 1.1 mi ENE 1.2 mph - N/A   Overcast
12:46 AM 55.4 °F 55.4 °F 100% 30.06 in - ENE 1.2 mph - N/A   Overcast
12:47 AM 57.2 °F 55.4 °F 94% 30.06 in 3.1 mi Calm Calm - N/A   Overcast
12:55 AM 57.2 °F 55.4 °F 94% 30.06 in 5.0 mi ENE 1.2 mph - N/A   Overcast
12:59 AM 55.4 °F 55.4 °F 100% 30.06 in 4.3 mi ENE 1.2 mph - N/A   Overcast
1:03 AM 55.4 °F 55.4 °F 100% 30.06 in - WSW 2.3 mph - N/A   Overcast
1:08 AM 55.4 °F 55.4 °F 100% 30.06 in 3.1 mi WSW 2.3 mph - N/A   Overcast
1:12 AM 55.4 °F 55.4 °F 100% 30.06 in - WSW 2.3 mph - N/A   Overcast
1:16 AM 55.4 °F 55.4 °F 100% 30.06 in 3.1 mi WSW 1.2 mph - N/A   Overcast
1:25 AM 55.4 °F 55.4 °F 100% 30.06 in 3.1 mi WSW 1.2 mph - N/A   Overcast
1:29 AM 55.4 °F 55.4 °F 100% 30.06 in 1.8 mi WSW 1.2 mph - N/A   Overcast
1:42 AM 55.4 °F 55.4 °F 100% 30.06 in - WSW 2.3 mph - N/A   Overcast
1:46 AM 55.4 °F 55.4 °F 100% 30.06 in - WSW 1.2 mph - N/A   Overcast
1:55 AM 55.4 °F 55.4 °F 100% 30.06 in 2.5 mi WSW 1.2 mph - N/A   Overcast
2:04 AM 55.4 °F 55.4 °F 100% 30.06 in 3.7 mi WSW 1.2 mph - N/A   Mostly Cloudy
2:08 AM 55.4 °F 55.4 °F 100% 30.06 in - WSW 1.2 mph - N/A   Mostly Cloudy
2:12 AM 55.4 °F 55.4 °F 100% 30.06 in - WSW 1.2 mph - N/A   Mostly Cloudy
2:17 AM 55.4 °F 55.4 °F 100% 30.06 in - WSW 1.2 mph - N/A   Overcast
2:25 AM 55.4 °F 55.4 °F 100% 30.06 in - WSW 2.3 mph - N/A   Overcast
2:30 AM 55.4 °F 55.4 °F 100% 30.06 in 3.1 mi SW 2.3 mph - N/A   Overcast
2:43 AM 55.4 °F 55.4 °F 100% 30.06 in 3.7 mi SW 2.3 mph - N/A   Overcast
2:55 AM 57.2 °F 55.4 °F 94% 30.06 in 3.7 mi Calm Calm - N/A Rain Light Rain
3:05 AM 55.4 °F 55.4 °F 100% 30.06 in - Calm Calm - N/A Rain Rain
3:25 AM 55.4 °F 55.4 °F 100% 30.06 in - SSW 1.2 mph - N/A Rain Light Rain
3:29 AM 55.4 °F 55.4 °F 100% 30.06 in - East 2.3 mph - N/A Rain Light Rain
3:33 AM 55.4 °F 55.4 °F 100% 30.06 in - East 1.2 mph - N/A Rain Light Rain
3:34 AM 55.4 °F 55.4 °F 100% 30.06 in - East 1.2 mph - N/A Rain Light Rain
3:49 AM 57.2 °F 55.4 °F 94% 30.06 in - East 1.2 mph - N/A Rain Rain
3:55 AM 57.2 °F 55.4 °F 94% 30.06 in - ENE 2.3 mph - N/A Rain Light Rain
4:06 AM 57.2 °F 55.4 °F 94% 30.06 in - NE 1.2 mph - N/A Rain Light Rain
4:07 AM 55.4 °F 55.4 °F 100% 30.04 in 3.7 mi North 2.3 mph - N/A Rain Light Rain
4:20 AM 55.4 °F 55.4 °F 100% 30.04 in 5.0 mi WNW 1.2 mph - N/A Rain Light Rain
4:25 AM 57.2 °F 55.4 °F 94% 30.06 in - SW 2.3 mph - N/A Rain Light Rain
4:29 AM 57.2 °F 57.2 °F 100% 30.06 in - SE 3.5 mph - N/A Rain Light Rain
4:39 AM 57.2 °F 55.4 °F 94% 30.06 in - South 1.2 mph - N/A Rain Light Rain
4:49 AM 57.2 °F 55.4 °F 94% 30.06 in - WSW 2.3 mph - N/A Rain Light Rain Showers
4:55 AM 57.2 °F 55.4 °F 94% 30.06 in - SW 2.3 mph - N/A Rain Rain Showers
5:02 AM 57.2 °F 55.4 °F 94% 30.04 in - WSW 2.3 mph - N/A Rain Rain
5:15 AM 57.2 °F 55.4 °F 94% 30.04 in 3.1 mi WNW 2.3 mph - N/A Rain Light Rain Showers
5:25 AM 55.4 °F 55.4 °F 100% 30.04 in - NW 2.3 mph - N/A Rain Rain Showers
5:29 AM 55.4 °F 55.4 °F 100% 30.04 in - NW 1.2 mph - N/A Rain Rain
5:55 AM 57.2 °F 55.4 °F 94% 30.04 in 1.7 mi SE 1.2 mph - N/A Rain Rain Showers
6:11 AM 55.4 °F 55.4 °F 100% 30.04 in - West 2.3 mph - N/A Rain Light Rain Showers
6:16 AM 55.4 °F 55.4 °F 100% 30.04 in - WNW 2.3 mph - N/A Rain Light Rain Showers
6:25 AM 57.2 °F 55.4 °F 94% 30.04 in - West 2.3 mph - N/A Rain Light Rain
6:29 AM 57.2 °F 55.4 °F 94% 30.04 in 2.2 mi West 2.3 mph - N/A Rain Rain
6:30 AM 57.2 °F 55.4 °F 94% 30.04 in - West 2.3 mph - N/A Rain Light Rain
6:55 AM 57.2 °F 57.2 °F 100% 30.04 in 1.6 mi West 3.5 mph - N/A Rain Rain
6:56 AM 57.2 °F 57.2 °F 100% 30.04 in 1.6 mi West 4.6 mph - N/A Rain Light Rain
7:04 AM 57.2 °F 57.2 °F 100% 30.04 in - West 4.6 mph - N/A Rain Light Rain Showers
7:09 AM 57.2 °F 57.2 °F 100% 30.04 in 3.1 mi West 4.6 mph - N/A Rain Light Rain Showers
7:12 AM 57.2 °F 57.2 °F 100% 30.04 in - West 4.6 mph - N/A Rain Light Rain
7:15 AM 57.2 °F 55.4 °F 94% 30.04 in 3.1 mi WNW 4.6 mph - N/A Rain Light Rain
7:25 AM 57.2 °F 55.4 °F 94% 30.04 in 3.1 mi West 4.6 mph - N/A Rain Light Rain
7:32 AM 57.2 °F 55.4 °F 94% 30.04 in - WNW 3.5 mph - N/A Rain Rain
7:37 AM 57.2 °F 55.4 °F 94% 30.04 in 3.1 mi NW 3.5 mph - N/A Rain Rain
7:50 AM 55.4 °F 53.6 °F 94% 30.04 in 5.6 mi NW 4.6 mph - N/A Rain Rain Showers
7:55 AM 55.4 °F 53.6 °F 94% 30.04 in 5.0 mi NW 4.6 mph - N/A Rain Rain Showers
7:58 AM 55.4 °F 51.8 °F 88% 30.04 in 4.3 mi NW 5.8 mph - N/A Rain Rain Showers
8:06 AM 55.4 °F 51.8 °F 88% 30.04 in 5.0 mi NW 4.6 mph - N/A Rain Rain Showers
8:10 AM 53.6 °F 51.8 °F 94% 30.04 in 4.3 mi NW 4.6 mph - N/A Rain Rain
8:25 AM 53.6 °F 50.0 °F 88% 30.04 in 3.7 mi NW 4.6 mph - N/A Rain Rain
8:55 AM 53.6 °F 51.8 °F 94% 30.06 in 3.7 mi NW 5.8 mph - N/A Rain Rain
9:09 AM 53.6 °F 51.8 °F 94% 30.06 in 5.0 mi WNW 5.8 mph - N/A Rain Light Rain
9:25 AM 53.6 °F 51.8 °F 94% 30.06 in 5.6 mi NW 6.9 mph - N/A Rain Light Rain
9:55 AM 53.6 °F 51.8 °F 94% 30.06 in 6.2 mi NW 3.5 mph - N/A   Light Drizzle
10:25 AM 53.6 °F 51.8 °F 94% 30.06 in 6.2 mi WNW 3.5 mph - N/A   Overcast
10:55 AM 55.4 °F 53.6 °F 94% 30.09 in 6.2 mi NW 2.3 mph - N/A   Overcast
11:25 AM 55.4 °F 51.8 °F 88% 30.09 in 6.2 mi West 2.3 mph - N/A   Overcast
11:55 AM 57.2 °F 51.8 °F 82% 30.09 in 6.2 mi North 2.3 mph - N/A   Overcast
12:25 PM 59.0 °F 53.6 °F 82% 30.09 in 6.2 mi ENE 2.3 mph - N/A   Overcast
12:29 PM 59.0 °F 53.6 °F 82% 30.09 in 6.2 mi ENE 2.3 mph - N/A   Mostly Cloudy
12:42 PM 59.0 °F 53.6 °F 82% 30.09 in 6.2 mi NNE 3.5 mph - N/A   Overcast
12:46 PM 59.0 °F 53.6 °F 82% 30.09 in 6.2 mi NNE 2.3 mph - N/A   Overcast
12:55 PM 59.0 °F 53.6 °F 82% 30.09 in 6.2 mi North 2.3 mph - N/A   Overcast
1:06 PM 59.0 °F 51.8 °F 77% 30.09 in 6.2 mi SSE 2.3 mph - N/A   Mostly Cloudy
1:13 PM 59.0 °F 51.8 °F 77% 30.09 in 6.2 mi SE 2.3 mph - N/A   Overcast
1:25 PM 60.8 °F 53.6 °F 77% 30.09 in 6.2 mi West 2.3 mph - N/A   Overcast
1:31 PM 60.8 °F 53.6 °F 77% 30.09 in 6.2 mi West 3.5 mph - N/A   Overcast
1:47 PM 62.6 °F 53.6 °F 72% 30.09 in 6.2 mi East 2.3 mph - N/A   Mostly Cloudy
1:55 PM 62.6 °F 50.0 °F 63% 30.09 in 6.2 mi ENE 2.3 mph - N/A   Scattered Clouds
1:56 PM 62.6 °F 50.0 °F 63% 30.09 in 6.2 mi WNW 2.3 mph - N/A   Partly Cloudy
2:25 PM 62.6 °F 50.0 °F 63% 30.09 in 6.2 mi SW 4.6 mph - N/A   Mostly Cloudy
2:55 PM 64.4 °F 48.2 °F 56% 30.09 in 6.2 mi SW 5.8 mph - N/A   Overcast
3:25 PM 64.4 °F 50.0 °F 59% 30.09 in 6.2 mi SW 5.8 mph - N/A   Partly Cloudy
3:55 PM 66.2 °F 50.0 °F 56% 30.09 in 6.2 mi SW 4.6 mph - N/A   Scattered Clouds
4:25 PM 66.2 °F 50.0 °F 56% 30.09 in 6.2 mi SSE 4.6 mph - N/A   Overcast
4:55 PM 64.4 °F 50.0 °F 59% 30.09 in 6.2 mi South 3.5 mph - N/A   Scattered Clouds
5:25 PM 66.2 °F 50.0 °F 56% 30.09 in 6.2 mi East 4.6 mph - N/A   Mostly Cloudy
5:55 PM 64.4 °F 48.2 °F 56% 30.09 in 6.2 mi SSE 5.8 mph - N/A   Mostly Cloudy
6:25 PM 64.4 °F 50.0 °F 59% 30.09 in 6.2 mi ESE 5.8 mph - N/A   Scattered Clouds
6:55 PM 62.6 °F 51.8 °F 68% 30.09 in 6.2 mi East 4.6 mph - N/A   Overcast
7:25 PM 60.8 °F 51.8 °F 72% 30.09 in 6.2 mi ESE 6.9 mph - N/A   Overcast
7:55 PM 60.8 °F 51.8 °F 72% 30.09 in 6.2 mi ESE 5.8 mph - N/A   Mostly Cloudy
8:25 PM 59.0 °F 51.8 °F 77% 30.09 in 6.2 mi ESE 4.6 mph - N/A   Mostly Cloudy
8:55 PM 59.0 °F 51.8 °F 77% 30.09 in 6.2 mi East 4.6 mph - N/A   Overcast
9:25 PM 57.2 °F 51.8 °F 82% 30.09 in 6.2 mi ESE 3.5 mph - N/A   Overcast
9:55 PM 57.2 °F 51.8 °F 82% 30.09 in 6.2 mi SE 5.8 mph - N/A   Overcast
10:25 PM 57.2 °F 51.8 °F 82% 30.09 in 6.2 mi SE 4.6 mph - N/A   Mostly Cloudy
10:55 PM 57.2 °F 51.8 °F 82% 30.09 in 6.2 mi ESE 4.6 mph - N/A   Overcast
11:25 PM 55.4 °F 50.0 °F 82% 30.09 in 6.2 mi ESE 4.6 mph - N/A   Unknown
11:55 PM 53.6 °F 50.0 °F 88% 30.09 in 6.2 mi South 2.3 mph - N/A   Mostly Cloudy